Overview Statistics Trail Chart Weather Telemetry Raw packets
 

This is the latest recevied weather packets stored in our database for station/object DN9CHO-13. If no packets are shown the sender has not sent any weather packets the latest 10 day(s).

<< 41 42 43 44 45 46 47 >>
Time Temp. Humidity Pressure Rain* Wind** Luminosity Snow
1787951734 17.22° C 83% 1014.6 hPa 0 mm - 0 W/m² -
1787951130 17.22° C 84% 1014.7 hPa 0 mm - 0 W/m² -
1787950526 17.22° C 85% 1014.7 hPa 0 mm - 0 W/m² -
1787949922 17.22° C 84% 1014.7 hPa 0 mm - 0 W/m² -
1787949319 17.22° C 82% 1014.8 hPa 0 mm - 0 W/m² -
1787948735 17.22° C 82% 1014.7 hPa 0 mm - 0 W/m² -
1787948131 17.22° C 82% 1014.6 hPa 0 mm - 0 W/m² -
1787947527 17.22° C 81% 1014.5 hPa 0 mm - 0 W/m² -
1787946924 17.22° C 82% 1014.3 hPa 0 mm - 0 W/m² -
1787946320 17.22° C 82% 1014.1 hPa 0 mm - 0 W/m² -
1787945716 17.22° C 83% 1013.9 hPa 0 mm - 0 W/m² -
1787945133 17.78° C 83% 1013.8 hPa 0 mm - 0 W/m² -
1787944529 17.78° C 83% 1013.7 hPa 0 mm - 0 W/m² -
1787943925 17.78° C 84% 1013.5 hPa 0 mm - 0 W/m² -
1787943322 17.78° C 83% 1013.4 hPa 0 mm - 0 W/m² -
1787942718 17.78° C 84% 1013.1 hPa 0 mm - 0 W/m² -
1787942134 17.22° C 86% 1012.9 hPa 0.76 mm - 0 W/m² -
1787941531 17.22° C 87% 1012.8 hPa 0.76 mm - 0 W/m² -
1787940927 17.22° C 87% 1012.9 hPa 0.76 mm - 0 W/m² -
1787940323 17.22° C 88% 1012.7 hPa 1.52 mm - 1 W/m² -
1787939720 17.78° C 87% 1012.7 hPa 1.52 mm - 0 W/m² -
1787939116 18.33° C 85% 1012.8 hPa 1.52 mm - 0 W/m² -
1787938532 18.89° C 78% 1012.5 hPa 0.76 mm - 0 W/m² -
1787937929 18.89° C 78% 1012.2 hPa 0.76 mm - 0 W/m² -
1787937325 21.11° C 70% 1012.2 hPa 0.76 mm - 0 W/m² -

* Rain latest hour (hover to see other rain measurements)
** Current wind speed in m/s (hover to see current wind gust speed)